Back to catalog

VLADIVOSTOK-2

AliveScienceSSO
NORAD 67275·PAYLOAD·🇷🇺 Russia
This satellite name has not been confirmed by official sources yet.

Launched Dec 28, 2025 from Vostochny Cosmodrome

Loading…

Next Passes (next 24 hours)

TLE

FreshSource: Space-Track

Epoch: Sep 13, 2026, 18:40 UTC

1 67275U 25313AD  26256.77791239  .00004253  00000-0  18012-3 0  9996
2 67275  97.3839 329.9190 0014763  61.6104 298.6620 15.23604423 39432

Track VLADIVOSTOK-2 in real time with AllMySat

Download on the App Store